Weather History for 03969 - October, 2012

Change the Weather History Date:

Saturday, October 6, 2012

  Actual Average Record
Temperature  
Mean Temperature 47 °F -  
Max Temperature 56 °F 56 °F - ()
Min Temperature 38 °F 45 °F - ()
Degree Days  
Heating Degree Days 18    
Moisture  
Dew Point 43 °F    
Average Humidity 89    
Maximum Humidity 100    
Minimum Humidity 67    
Precipitation  
Precipitation 0.00 in 0.09 in - ()
Sea Level Pressure  
Sea Level Pressure 29.94 in    
Wind  
Wind Speed 8 mph ()    
Max Wind Speed 14 mph    
Max Gust Speed -    
Visibility 6.4 miles    
Events      
T = Trace of Precipitation, MM = Missing Value Source: Averaged Metar Reports

Daily Weather History Graph

Daily Weather History Graph

Search for Another Location

Airport or City:

Trip Planner

Search our weather history database for the weather conditions in past years. The results will help you decide how hot, cold, wet, or windy it might be!

Date:

Astronomy

Oct. 06, 2012 Rise Set
Actual Time 7:36 AM IST 6:49 PM IST
Civil Twilight 7:01 AM IST 7:23 PM IST
Nautical Twilight 6:21 AM IST 8:04 PM IST
Astronomical Twilight 5:39 AM IST 8:45 PM IST
Moon 10:12 PM IST (10/6) 2:01 PM IST (10/6)
Length of Visible Light 12h 22m
Length of Day
11h 12m
Waning Gibbous, 67% of the Moon is Illuminated
Oct 6
Waning Gibbous
Oct 8
Last Quarter
Oct 15
New
Oct 22
First Quarter
Oct 29
Full

Hourly Weather History & Observations

Time (IST) Temp. Windchill Dew Point Humidity Pressure Visibility Wind Dir Wind Speed Gust Speed Precip Events Conditions
12:00 AM 44.6 °F 39.7 °F 42.8 °F 93% 29.80 in 6.2 mi West 9.2 mph - N/A   Partly Cloudy
12:30 AM 42.8 °F 38.0 °F 41.0 °F 93% 29.80 in 6.2 mi West 8.1 mph - N/A   Partly Cloudy
1:00 AM 42 °F - 41 °F 97% 29.83 in 25 mi West 8.9 mph - -   Scattered Clouds
1:00 AM 42.8 °F 38.0 °F 41.0 °F 93% 29.80 in 6.2 mi West 8.1 mph - N/A   Partly Cloudy
1:30 AM 42.8 °F 37.5 °F 41.0 °F 93% 29.80 in 6.2 mi West 9.2 mph - N/A   Partly Cloudy
2:00 AM 42.8 °F 38.0 °F 41.0 °F 93% 29.80 in 6.2 mi West 8.1 mph - N/A   Partly Cloudy
3:00 AM 41.0 °F 35.8 °F 41.0 °F 100% 29.83 in 6.2 mi West 8.1 mph - N/A   Partly Cloudy
3:30 AM 41.0 °F 36.4 °F 41.0 °F 100% 29.83 in - West 6.9 mph - N/A   Clear
4:00 AM 41.0 °F 35.8 °F 41.0 °F 100% 29.83 in - West 8.1 mph - N/A   Clear
4:30 AM 41.0 °F 34.7 °F 39.2 °F 93% 29.83 in - West 10.4 mph - N/A   Clear
5:00 AM 39.2 °F 32.5 °F 39.2 °F 100% 29.83 in - West 10.4 mph - N/A   Clear
5:30 AM 39.2 °F 32.5 °F 39.2 °F 100% 29.86 in - West 10.4 mph - N/A   Clear
6:00 AM 39.2 °F 32.5 °F 39.2 °F 100% 29.86 in - West 10.4 mph - N/A   Clear
6:30 AM 39.2 °F 32.0 °F 39.2 °F 100% 29.86 in - West 11.5 mph - N/A   Clear
7:00 AM 39 °F - 38 °F 97% 29.90 in 19 mi West 11.2 mph - -   Scattered Clouds
7:00 AM 39.2 °F 32.0 °F 39.2 °F 100% 29.86 in 6.2 mi West 11.5 mph - N/A   Partly Cloudy
7:30 AM 39.2 °F 33.6 °F 37.4 °F 93% 29.89 in 6.2 mi West 8.1 mph - N/A   Partly Cloudy
8:00 AM 39.2 °F 32.0 °F 39.2 °F 100% 29.89 in 6.2 mi West 11.5 mph - N/A   Partly Cloudy
8:30 AM 39.2 °F 32.0 °F 39.2 °F 100% 29.92 in 6.2 mi West 11.5 mph - N/A   Partly Cloudy
9:00 AM 41.0 °F 34.3 °F 39.2 °F 93% 29.92 in 6.2 mi West 11.5 mph - N/A   Partly Cloudy
9:30 AM 41.0 °F 34.7 °F 41.0 °F 100% 29.92 in 6.2 mi West 10.4 mph - N/A   Partly Cloudy
10:00 AM 42.8 °F 35.8 °F 42.8 °F 100% 29.92 in 6.2 mi West 13.8 mph - N/A   Scattered Clouds
10:30 AM 44.6 °F 38.4 °F 42.8 °F 93% 29.95 in 3.1 mi West 12.7 mph - N/A   Mostly Cloudy
11:00 AM 46.4 °F 40.7 °F 44.6 °F 93% 29.95 in 3.7 mi West 12.7 mph - N/A   Scattered Clouds
11:30 AM 46.4 °F 40.7 °F 44.6 °F 93% 29.95 in 3.7 mi West 12.7 mph - N/A   Scattered Clouds
12:00 PM 48.2 °F - 46.4 °F 93% 29.95 in 4.3 mi West 12.7 mph - N/A   Partly Cloudy
12:30 PM 51.8 °F - 48.2 °F 88% 29.95 in 6.2 mi West 8.1 mph - N/A   Partly Cloudy
1:00 PM 53 °F - 48 °F 78% 29.98 in 12 mi West 11.2 mph - -   Scattered Clouds
1:00 PM 53.6 °F - 48.2 °F 82% 29.98 in 6.2 mi West 10.4 mph - N/A   Partly Cloudy
1:30 PM 55.4 °F - 46.4 °F 72% 29.98 in 6.2 mi West 9.2 mph - N/A   Partly Cloudy
2:00 PM 55.4 °F - 46.4 °F 72% 29.98 in 6.2 mi NW 10.4 mph - N/A   Scattered Clouds
2:30 PM 55.4 °F - 46.4 °F 72% 29.98 in 6.2 mi NW 10.4 mph - N/A   Scattered Clouds
3:00 PM 55.4 °F - 46.4 °F 72% 29.98 in 6.2 mi NNW 10.4 mph - N/A   Scattered Clouds
3:30 PM 57.2 °F - 46.4 °F 67% 29.98 in 6.2 mi NNW 8.1 mph - N/A   Scattered Clouds
4:00 PM 53.6 °F - 46.4 °F 77% 29.98 in 6.2 mi NW 10.4 mph - N/A   Scattered Clouds
4:30 PM 55.4 °F - 46.4 °F 72% 29.98 in 6.2 mi WNW 8.1 mph - N/A   Mostly Cloudy
5:00 PM 53.6 °F - 46.4 °F 77% 29.98 in 6.2 mi NW 5.8 mph - N/A   Mostly Cloudy
5:30 PM 53.6 °F - 44.6 °F 72% 30.01 in 6.2 mi NW 4.6 mph - N/A   Mostly Cloudy
6:00 PM 53.6 °F - 46.4 °F 77% 30.01 in 6.2 mi NW 4.6 mph - N/A   Mostly Cloudy
6:30 PM 51.8 °F - 46.4 °F 82% 30.01 in 6.2 mi WNW 4.6 mph - N/A   Mostly Cloudy
7:00 PM 51 °F - 46 °F 77% 30.05 in 25 mi WNW 6.7 mph - -   Mostly Cloudy
7:00 PM 51.8 °F - 46.4 °F 82% 30.04 in 6.2 mi WNW 5.8 mph - N/A   Mostly Cloudy
7:30 PM 50.0 °F - 44.6 °F 82% 30.04 in 6.2 mi WNW 5.8 mph - N/A   Mostly Cloudy
8:00 PM 50.0 °F - 46.4 °F 87% 30.04 in 6.2 mi West 4.6 mph - N/A   Mostly Cloudy
8:30 PM 50.0 °F - 46.4 °F 87% 30.06 in 6.2 mi WNW 6.9 mph - N/A   Mostly Cloudy
9:00 PM 50.0 °F - 46.4 °F 87% 30.06 in 6.2 mi NW 5.8 mph - N/A   Mostly Cloudy
9:30 PM 48.2 °F - 46.4 °F 93% 30.06 in 6.2 mi NNW 5.8 mph - N/A   Mostly Cloudy
10:00 PM 48.2 °F - 46.4 °F 93% 30.09 in 6.2 mi NNW 6.9 mph - N/A   Mostly Cloudy
10:30 PM 48.2 °F - 46.4 °F 93% 30.09 in 6.2 mi North 5.8 mph - N/A   Mostly Cloudy
11:00 PM 46.4 °F 43.5 °F 44.6 °F 93% 30.09 in 6.2 mi North 5.8 mph - N/A   Mostly Cloudy
11:30 PM 44.6 °F 42.2 °F 42.8 °F 93% 30.09 in 6.2 mi North 4.6 mph - N/A   Mostly Cloudy